Weather History for Cleveland, OH

Change the Weather History Date:

Wednesday, October 2, 2013

  Actual Average Record
Temperature  
Mean Temperature 70 °F 58 °F  
Max Temperature 79 °F 67 °F 86 °F (1919)
Min Temperature 61 °F 50 °F 32 °F (1975)
Degree Days  
Heating Degree Days 0 7  
Month to date heating degree days 0 14  
Since 1 July heating degree days 94 117  
Cooling Degree Days 5 1  
Month to date cooling degree days 8 2  
Year to date cooling degree days 863 806  
Growing Degree Days 20 (Base 50)    
Moisture  
Dew Point 60 °F    
Average Humidity 76    
Maximum Humidity 90    
Minimum Humidity 61    
Precipitation  
Precipitation 0.00 in 0.10 in 1.04 in (1969)
Month to date precipitation 0.00 0.21  
Year to date precipitation 30.17 29.56  
Snow  
Snow 0.00 in 0.00 in - ()
Month to date snowfall 0.0 0.0  
Since 1 July snowfall 0.0 0.0  
Since 1 September snowfall 0.0 0.0  
Snow Depth 0.00 in    
Sea Level Pressure  
Sea Level Pressure 30.06 in    
Wind  
Wind Speed 6 mph (SW)    
Max Wind Speed 13 mph    
Max Gust Speed 17 mph    
Visibility 10 miles    
Events      
T = Trace of Precipitation, MM = Missing Value Source: NWS Daily Summary

Daily Weather History Graph

Daily Weather History Graph

Search for Another Location

Airport:

Trip Planner

Search our weather history database for the weather conditions in past years. The results will help you decide how hot, cold, wet, or windy it might be!

Date:

Astronomy

Oct. 02, 2013 Rise Set
Actual Time 7:25 AM EDT 7:07 PM EDT
Civil Twilight 6:57 AM EDT 7:34 PM EDT
Nautical Twilight 6:25 AM EDT 8:06 PM EDT
Astronomical Twilight 5:53 AM EDT 8:38 PM EDT
Moon 4:55 AM EDT (10/2) 5:43 PM EDT (10/2)
Length of Visible Light 12h 36m
Length of Day
11h 41m
Waning Crescent, 6% of the Moon is Illuminated
Oct 2
Waning Crescent
Oct 4
New
Oct 11
First Quarter
Oct 18
Full
Oct 26
Last Quarter

Hourly Weather History & Observations

Time (EDT) Temp. Dew Point Humidity Pressure Visibility Wind Dir Wind Speed Gust Speed Precip Events Conditions
12:51 AM 64.0 °F 57.0 °F 78% 30.02 in 10.0 mi SSW 8.1 mph - N/A   Clear
1:51 AM 64.0 °F 57.9 °F 80% 30.03 in 10.0 mi SSW 9.2 mph - N/A   Clear
2:51 AM 64.0 °F 57.9 °F 80% 30.03 in 10.0 mi SW 6.9 mph - N/A   Partly Cloudy
3:51 AM 64.9 °F 57.9 °F 78% 30.02 in 10.0 mi SW 8.1 mph - N/A   Mostly Cloudy
4:51 AM 64.9 °F 59.0 °F 81% 30.03 in 10.0 mi SW 10.4 mph - N/A   Mostly Cloudy
5:51 AM 64.9 °F 59.0 °F 81% 30.04 in 10.0 mi SW 9.2 mph - N/A   Mostly Cloudy
6:51 AM 64.0 °F 59.0 °F 84% 30.04 in 10.0 mi SW 6.9 mph - N/A   Scattered Clouds
7:51 AM 63.0 °F 59.0 °F 87% 30.06 in 7.0 mi SW 6.9 mph - N/A   Scattered Clouds
8:51 AM 66.0 °F 61.0 °F 84% 30.07 in 7.0 mi SW 6.9 mph - N/A   Clear
9:51 AM 69.1 °F 63.0 °F 81% 30.09 in 8.0 mi WSW 9.2 mph - N/A   Mostly Cloudy
10:51 AM 70.0 °F 63.0 °F 78% 30.10 in 8.0 mi WSW 5.8 mph - N/A   Overcast
11:51 AM 71.1 °F 64.0 °F 78% 30.10 in 9.0 mi WSW 6.9 mph - N/A   Overcast
12:51 PM 73.0 °F 64.0 °F 73% 30.09 in 10.0 mi SW 5.8 mph - N/A   Mostly Cloudy
1:08 PM 73.9 °F 64.0 °F 71% 30.10 in 10.0 mi SW 4.6 mph - N/A   Scattered Clouds
1:51 PM 77.0 °F 64.9 °F 66% 30.08 in 10.0 mi WSW 6.9 mph - N/A   Scattered Clouds
2:51 PM 73.9 °F 64.0 °F 71% 30.07 in 10.0 mi North 9.2 mph - N/A   Mostly Cloudy
3:51 PM 77.0 °F 64.9 °F 66% 30.06 in 10.0 mi North 6.9 mph - N/A   Partly Cloudy
4:51 PM 75.0 °F 63.0 °F 66% 30.06 in 10.0 mi North 9.2 mph - N/A   Partly Cloudy
5:51 PM 73.0 °F 61.0 °F 66% 30.06 in 10.0 mi North 5.8 mph - N/A   Clear
6:51 PM 70.0 °F 55.9 °F 61% 30.07 in 10.0 mi NNE 4.6 mph - N/A   Partly Cloudy
7:51 PM 68.0 °F 55.9 °F 65% 30.08 in 10.0 mi East 4.6 mph - N/A   Partly Cloudy
8:51 PM 66.0 °F 57.0 °F 73% 30.08 in 10.0 mi SE 3.5 mph - N/A   Scattered Clouds
9:51 PM 63.0 °F 57.0 °F 81% 30.08 in 10.0 mi Calm Calm - N/A   Mostly Cloudy
10:51 PM 63.0 °F 57.9 °F 84% 30.08 in 10.0 mi SSE 3.5 mph - N/A   Mostly Cloudy
11:51 PM 63.0 °F 57.9 °F 84% 30.10 in 9.0 mi SSE 3.5 mph - N/A   Mostly Cloudy